Powrót do katalogu

CZ-6A DEB

AktywnySSO
NORAD 56281·DEBRIS·🇨🇳 China

Wystrzelony Nov 11, 2022 z Taiyuan Satellite Launch Center

Loading…

Następne Przeloty (najbliższe 24 godziny)

TLE

ŚwieżeSource: Space-Track

Epoka: Sep 13, 2026, 23:22 UTC

1 56281U 22151ACZ 26256.97415422  .00001350  00000-0  71057-3 0  9990
2 56281  98.8339 253.8628 0058238  80.0674 280.7066 14.14837152179551

Śledź CZ-6A DEB w czasie rzeczywistym z AllMySat

Download on the App Store